EW4650 Weather Reports


Display with metric or nautical units.
time (UTC)temp
F
wind
direction
speed
MPH
gust
MPH
rain 1hr
in
rain 24hr
in
rain mn
in
humidity
%
barometer
mb
20260901044018 80 171 10.0 15.0 0.00 0.00 0.00 70 1012.6
20260901043518 81 151 8.0 18.0 0.00 0.00 0.00 69 1012.5
20260901043022 81 157 8.0 18.0 0.00 0.00 0.00 68 1012.6
20260901042517 81 166 8.0 20.0 0.00 0.00 0.00 67 1012.5
20260901042017 81 145 9.0 20.0 0.00 0.00 0.00 67 1012.5
20260901041517 81 102 10.0 18.0 0.00 0.00 0.00 65 1012.5
20260901041017 82 127 9.0 15.0 0.00 0.00 0.00 64 1012.5
20260901040517 82 169 8.0 15.0 0.00 0.00 0.00 63 1012.4
20260901040017 82 98 10.0 14.0 0.00 0.00 0.00 63 1012.4
20260901035518 82 146 7.0 18.0 0.00 0.00 0.00 62 1012.3
20260901035015 83 154 10.0 19.0 0.00 0.00 0.00 62 1012.2
20260901034526 83 150 12.0 19.0 0.00 0.00 0.00 61 1012.1
20260901034015 82 156 9.0 16.0 0.00 0.00 0.00 60 1012.1
20260901033515 82 121 9.0 16.0 0.00 0.00 0.00 60 1012.0
20260901033016 82 91 5.0 10.0 0.00 0.00 0.00 60 1011.9
20260901032515 82 99 4.0 7.0 0.00 0.00 0.00 59 1011.9
20260901032015 82 116 4.0 8.0 0.00 0.00 0.00 59 1011.7
20260901031524 82 109 3.0 8.0 0.00 0.00 0.00 59 1011.6
20260901031014 82 124 4.0 7.0 0.00 0.00 0.00 59 1011.6
20260901030514 82 105 4.0 7.0 0.00 0.00 0.00 59 1011.6
20260901030014 82 96 4.0 8.0 0.00 0.00 0.00 59 1011.6
20260901025517 82 125 4.0 8.0 0.00 0.00 0.00 59 1011.5
20260901025017 82 128 3.0 7.0 0.00 0.00 0.00 59 1011.5
20260901024514 82 115 3.0 7.0 0.00 0.00 0.00 59 1011.5
20260901024016 82 124 3.0 7.0 0.00 0.00 0.00 59 1011.4
20260901023513 83 111 3.0 7.0 0.00 0.00 0.00 59 1011.4
20260901023020 83 119 3.0 7.0 0.00 0.00 0.00 59 1011.2
20260901022517 83 130 2.0 7.0 0.00 0.00 0.00 59 1011.2
20260901022015 83 94 3.0 7.0 0.00 0.00 0.00 59 1011.2
20260901021513 83 101 3.0 7.0 0.00 0.00 0.00 59 1011.1
20260901021014 83 105 3.0 7.0 0.00 0.00 0.00 58 1011.1
20260901020515 84 96 3.0 7.0 0.00 0.00 0.00 58 1011.0
20260901020012 84 107 3.0 8.0 0.00 0.00 0.00 58 1011.0
20260901015611 84 109 3.0 8.0 0.00 0.00 0.00 58 1011.0
20260901015015 84 117 3.0 7.0 0.00 0.00 0.00 58 1011.0
20260901014511 84 121 3.0 7.0 0.00 0.00 0.00 57 1010.9
20260901014011 85 107 3.0 8.0 0.00 0.00 0.00 57 1010.8
20260901013511 85 115 3.0 10.0 0.00 0.00 0.00 57 1010.8
20260901013028 85 115 6.0 10.0 0.00 0.00 0.00 57 1010.8
20260901012510 85 118 3.0 9.0 0.00 0.00 0.00 56 1010.8
20260901012010 86 143 4.0 9.0 0.00 0.00 0.00 56 1010.7
20260901011510 86 109 5.0 9.0 0.00 0.00 0.00 55 1010.7
20260901011010 86 122 5.0 9.0 0.00 0.00 0.00 55 1010.6
20260901010510 86 73 4.0 10.0 0.00 0.00 0.00 55 1010.6
20260901010010 87 117 4.0 11.0 0.00 0.00 0.00 54 1010.6
20260901005509 87 116 6.0 11.0 0.00 0.00 0.00 54 1010.6
20260901005008 87 118 5.0 11.0 0.00 0.00 0.00 54 1010.6
20260901004510 88 81 4.0 11.0 0.00 0.00 0.00 53 1010.6
20260901004008 88 124 7.0 11.0 0.00 0.00 0.00 52 1010.5
20260901003508 89 137 7.0 13.0 0.00 0.00 0.00 51 1010.5
20260901003008 89 75 8.0 13.0 0.00 0.00 0.00 50 1010.4
20260901002508 90 151 6.0 10.0 0.00 0.00 0.00 50 1010.4
20260901002008 90 150 8.0 10.0 0.00 0.00 0.00 48 1010.4
20260901001511 91 130 3.0 10.0 0.00 0.00 0.00 48 1010.3
20260901001008 91 152 5.0 11.0 0.00 0.00 0.00 47 1010.2
20260901000508 91 144 5.0 11.0 0.00 0.00 0.00 46 1010.2
20260901000007 92 167 6.0 11.0 0.00 0.00 0.00 46 1010.2
20260831235506 92 146 4.0 12.0 0.00 0.00 0.00 45 1010.2
20260831235006 92 153 7.0 13.0 0.00 0.00 0.00 45 1010.2
20260831234506 92 118 2.0 12.0 0.00 0.00 0.00 46 1010.1
20260831234006 92 151 8.0 13.0 0.00 0.00 0.00 47 1010.1
20260831233509 92 175 8.0 13.0 0.00 0.00 0.00 46 1010.1
20260831233008 92 119 8.0 14.0 0.00 0.00 0.00 46 1010.1
20260831232507 92 126 9.0 14.0 0.00 0.00 0.00 46 1010.2
20260831232005 93 95 5.0 12.0 0.00 0.00 0.00 46 1010.1
20260831231504 93 166 7.0 17.0 0.00 0.00 0.00 46 1010.2
20260831231004 93 155 8.0 17.0 0.00 0.00 0.00 46 1010.1
20260831230507 93 121 8.0 17.0 0.00 0.00 0.00 47 1010.2
20260831230004 93 139 10.0 15.0 0.00 0.00 0.00 46 1010.2
20260831225504 93 144 8.0 13.0 0.00 0.00 0.00 46 1010.1
20260831225005 94 132 9.0 14.0 0.00 0.00 0.00 46 1010.1
20260831224502 93 144 5.0 14.0 0.00 0.00 0.00 47 1010.2
20260831224002 93 143 10.0 16.0 0.00 0.00 0.00 47 1010.3
20260831223502 93 164 11.0 17.0 0.00 0.00 0.00 47 1010.3
20260831223002 93 132 8.0 16.0 0.00 0.00 0.00 48 1010.2
20260831222500 92 123 8.0 16.0 0.00 0.00 0.00 48 1010.3
20260831222003 93 167 9.0 16.0 0.00 0.00 0.00 47 1010.3
20260831221629 93 155 11.0 16.0 0.00 0.00 0.00 46 1010.3
20260831221100 94 120 7.0 16.0 0.00 0.00 0.00 46 1010.4
20260831220600 94 105 8.0 14.0 0.00 0.00 0.00 47 1010.4
20260831220059 93 159 7.0 15.0 0.00 0.00 0.00 47 1010.3
20260831215557 93 141 10.0 15.0 0.00 0.00 0.00 48 1010.4
20260831215059 94 105 10.0 13.0 0.00 0.00 0.00 45 1010.6
20260831214558 94 93 7.0 17.0 0.00 0.00 0.00 46 1010.6
20260831214101 94 144 10.0 19.0 0.00 0.00 0.00 46 1010.6
20260831213556 94 175 10.0 19.0 0.00 0.00 0.00 47 1010.7
20260831213056 93 137 9.0 16.0 0.00 0.00 0.00 48 1010.6
20260831212557 93 98 9.0 16.0 0.00 0.00 0.00 48 1010.7
20260831212055 95 183 8.0 16.0 0.00 0.00 0.00 45 1010.8
20260831211555 97 121 8.0 13.0 0.00 0.00 0.00 44 1010.7
20260831211052 97 119 7.0 14.0 0.00 0.00 0.00 44 1010.9
20260831210554 96 211 6.0 14.0 0.00 0.00 0.00 44 1010.9
20260831210051 95 223 8.0 16.0 0.00 0.00 0.00 45 1011.0
20260831205551 95 101 8.0 16.0 0.00 0.00 0.00 44 1011.1
20260831205049 95 86 5.0 13.0 0.00 0.00 0.00 46 1011.1
20260831204549 95 150 8.0 13.0 0.00 0.00 0.00 45 1011.3
20260831204048 95 134 9.0 15.0 0.00 0.00 0.00 46 1011.3
20260831203547 94 140 6.0 16.0 0.00 0.00 0.00 48 1011.4
20260831203104 94 144 6.0 16.0 0.00 0.00 0.00 47 1011.5
20260831202545 94 150 7.0 19.0 0.00 0.00 0.00 49 1011.5
20260831202045 93 167 7.0 14.0 0.00 0.00 0.00 49 1011.7
20260831201553 93 148 10.0 13.0 0.00 0.00 0.00 50 1011.7
20260831201044 94 151 10.0 13.0 0.00 0.00 0.00 49 1011.8
20260831200544 94 186 6.0 10.0 0.00 0.00 0.00 49 1011.9
20260831200122 94 153 4.0 13.0 0.00 0.00 0.00 49 1012.0
20260831195544 94 149 8.0 13.0 0.00 0.00 0.00 48 1012.1
20260831195040 95 215 4.0 12.0 0.00 0.00 0.00 48 1012.1
20260831194539 95 159 5.0 14.0 0.00 0.00 0.00 49 1012.3
20260831194040 94 116 6.0 15.0 0.00 0.00 0.00 49 1012.2
20260831193537 95 181 8.0 16.0 0.00 0.00 0.00 47 1012.4
20260831193035 95 182 9.0 16.0 0.00 0.00 0.00 48 1012.4
20260831192538 95 134 6.0 12.0 0.00 0.00 0.00 48 1012.5
20260831192034 94 198 5.0 16.0 0.00 0.00 0.00 49 1012.5
20260831191530 94 203 9.0 17.0 0.00 0.00 0.00 50 1012.6
20260831191029 93 142 7.0 18.0 0.00 0.00 0.00 52 1012.6
20260831190532 92 171 7.0 16.0 0.00 0.00 0.00 53 1012.6
20260831190035 91 198 11.0 15.0 0.00 0.00 0.00 53 1012.6
20260831185530 92 198 8.0 13.0 0.00 0.00 0.00 51 1012.7
20260831185028 93 198 5.0 15.0 0.00 0.00 0.00 52 1012.7
20260831184527 93 169 4.0 11.0 0.00 0.00 0.00 52 1012.8
20260831184027 92 141 4.0 17.0 0.00 0.00 0.00 51 1012.8
20260831183529 92 211 6.0 15.0 0.00 0.00 0.00 52 1013.0
20260831183026 92 161 9.0 15.0 0.00 0.00 0.00 49 1013.1
20260831182526 91 70 7.0 16.0 0.00 0.00 0.00 53 1013.1
20260831182025 92 157 5.0 17.0 0.00 0.00 0.00 51 1013.1
20260831181529 92 202 8.0 13.0 0.00 0.00 0.00 53 1013.1
20260831181024 92 183 5.0 14.0 0.00 0.00 0.00 55 1013.2
20260831180524 91 130 6.0 14.0 0.00 0.00 0.00 55 1013.2
20260831180022 91 206 12.0 14.0 0.00 0.00 0.00 54 1013.3
20260831175522 91 180 6.0 18.0 0.00 0.00 0.00 54 1013.3
20260831175021 91 176 8.0 18.0 0.00 0.00 0.00 54 1013.3
20260831174521 90 190 4.0 15.0 0.00 0.00 0.00 56 1013.4
20260831174019 90 186 9.0 15.0 0.00 0.00 0.00 57 1013.5
20260831173519 90 227 8.0 14.0 0.00 0.00 0.00 56 1013.5
20260831173017 89 157 8.0 16.0 0.00 0.00 0.00 54 1013.5
20260831172516 89 175 9.0 16.0 0.00 0.00 0.00 55 1013.5
20260831172015 89 196 8.0 15.0 0.00 0.00 0.00 57 1013.5
20260831171515 88 155 8.0 15.0 0.00 0.00 0.00 60 1013.6
20260831171015 88 169 10.0 15.0 0.00 0.00 0.00 60 1013.6
20260831170514 88 190 7.0 15.0 0.00 0.00 0.00 60 1013.7
20260831170013 88 216 8.0 14.0 0.00 0.00 0.00 61 1013.7
20260831165512 88 209 7.0 14.0 0.00 0.00 0.00 62 1013.6
20260831165010 87 200 6.0 12.0 0.00 0.00 0.00 62 1013.7
20260831164517 87 191 6.0 13.0 0.00 0.00 0.00 62 1013.7
20260831164009 87 177 7.0 12.0 0.00 0.00 0.00 64 1013.7
20260831163509 86 187 5.0 14.0 0.00 0.00 0.00 66 1013.7
20260831163013 86 195 8.0 14.0 0.00 0.00 0.00 67 1013.9
20260831162508 86 182 8.0 11.0 0.00 0.00 0.00 67 1013.8
20260831162005 85 158 5.0 14.0 0.00 0.00 0.00 69 1013.9
20260831161506 85 139 7.0 14.0 0.00 0.00 0.00 69 1013.9
20260831161003 85 117 9.0 14.0 0.00 0.00 0.00 68 1013.8
20260831160502 85 182 6.0 12.0 0.00 0.00 0.00 71 1013.7
20260831160001 85 202 8.0 12.0 0.00 0.00 0.00 70 1013.6
20260831155600 84 196 6.0 12.0 0.00 0.00 0.00 71 1013.7
20260831155100 84 176 6.0 12.0 0.00 0.00 0.00 72 1013.6
20260831154609 84 235 6.0 12.0 0.00 0.00 0.00 72 1013.5
20260831154059 84 204 6.0 13.0 0.00 0.00 0.00 73 1013.5
20260831153557 83 164 5.0 11.0 0.00 0.00 0.00 74 1013.5
20260831153056 83 207 4.0 10.0 0.00 0.00 0.00 75 1013.4
20260831152557 83 148 6.0 9.0 0.00 0.00 0.00 77 1013.5
20260831152054 82 172 5.0 9.0 0.00 0.00 0.00 77 1013.5
20260831151553 82 188 4.0 9.0 0.00 0.00 0.00 78 1013.5
20260831151052 81 192 4.0 12.0 0.00 0.00 0.00 79 1013.4
20260831150549 81 166 6.0 10.0 0.00 0.00 0.00 80 1013.4
20260831150049 80 167 6.0 10.0 0.00 0.00 0.00 81 1013.5
20260831145547 80 194 5.0 10.0 0.00 0.00 0.00 80 1013.5
20260831145047 79 140 5.0 12.0 0.00 0.00 0.00 82 1013.4
20260831144547 79 169 8.0 12.0 0.00 0.00 0.00 82 1013.4
20260831144046 79 155 7.0 11.0 0.00 0.00 0.00 83 1013.4
20260831143546 79 153 6.0 10.0 0.00 0.00 0.00 84 1013.5
20260831143046 78 170 7.0 11.0 0.00 0.00 0.00 84 1013.5
20260831142546 78 155 7.0 11.0 0.00 0.00 0.00 84 1013.5
20260831142047 78 173 7.0 12.0 0.00 0.00 0.00 85 1013.4
20260831141547 77 180 6.0 10.0 0.00 0.00 0.00 86 1013.5
20260831141044 77 206 5.0 10.0 0.00 0.00 0.00 87 1013.5
20260831140544 77 196 5.0 10.0 0.00 0.00 0.00 87 1013.5
20260831140044 76 188 6.0 10.0 0.00 0.00 0.00 88 1013.3
20260831135544 76 184 5.0 11.0 0.00 0.00 0.00 88 1013.3
20260831135044 76 173 6.0 11.0 0.00 0.00 0.00 90 1013.3
20260831134548 75 165 7.0 11.0 0.00 0.00 0.00 90 1013.2
20260831134042 75 177 5.0 8.0 0.00 0.00 0.00 91 1013.3
20260831133542 74 159 4.0 9.0 0.00 0.00 0.00 92 1013.2
20260831133042 74 167 5.0 9.0 0.00 0.00 0.00 93 1013.1
20260831132541 74 165 5.0 9.0 0.00 0.00 0.00 94 1013.1
20260831132043 73 153 4.0 9.0 0.00 0.00 0.00 94 1013.2
20260831131541 73 182 2.0 7.0 0.00 0.00 0.00 94 1013.2
20260831131041 73 175 3.0 8.0 0.00 0.00 0.00 95 1013.2
20260831130540 73 171 4.0 7.0 0.00 0.00 0.00 95 1013.1
20260831130042 72 190 3.0 10.0 0.00 0.00 0.00 95 1013.1
20260831125541 72 185 4.0 7.0 0.00 0.00 0.00 95 1013.0
20260831125040 72 175 1.0 6.0 0.00 0.00 0.00 95 1013.0
20260831124540 72 190 2.0 5.0 0.00 0.00 0.00 94 1013.0
20260831124040 72 192 2.0 7.0 0.00 0.00 0.00 94 1013.0
20260831123539 72 171 4.0 7.0 0.00 0.00 0.00 94 1012.9
20260831123039 72 185 3.0 7.0 0.00 0.00 0.00 94 1012.9
20260831122539 72 151 4.0 9.0 0.00 0.00 0.00 94 1013.0
20260831122038 72 171 5.0 10.0 0.00 0.00 0.00 94 1012.9
20260831121538 72 196 6.0 10.0 0.00 0.00 0.00 94 1012.8
20260831121038 72 164 5.0 10.0 0.00 0.00 0.00 94 1012.8
20260831120538 73 200 4.0 9.0 0.00 0.00 0.00 94 1012.8
20260831120038 73 184 3.0 9.0 0.00 0.00 0.00 94 1012.8
20260831115536 73 198 3.0 8.0 0.00 0.00 0.00 94 1012.8
20260831115036 73 194 4.0 8.0 0.00 0.00 0.00 94 1012.8
20260831114536 73 164 5.0 9.0 0.00 0.00 0.00 94 1012.8
20260831114036 73 173 4.0 9.0 0.00 0.00 0.00 94 1012.7
20260831113537 73 172 5.0 8.0 0.00 0.00 0.00 94 1012.7
20260831113042 73 173 5.0 9.0 0.00 0.00 0.00 93 1012.6
20260831112535 73 175 5.0 10.0 0.00 0.00 0.00 93 1012.6
20260831112033 73 165 4.0 9.0 0.00 0.00 0.00 93 1012.6
20260831111533 73 147 6.0 9.0 0.00 0.00 0.00 93 1012.6
20260831111033 73 170 4.0 14.0 0.00 0.00 0.00 93 1012.5
20260831110537 73 180 5.0 15.0 0.00 0.00 0.00 93 1012.6
20260831110032 73 161 8.0 13.0 0.00 0.00 0.00 93 1012.6
20260831105534 73 186 4.0 10.0 0.00 0.00 0.00 92 1012.6
20260831105032 73 167 7.0 11.0 0.00 0.00 0.00 92 1012.6
20260831104536 73 175 6.0 11.0 0.00 0.00 0.00 92 1012.6
20260831104032 73 178 5.0 12.0 0.00 0.00 0.00 93 1012.6
20260831103532 73 186 7.0 14.0 0.00 0.00 0.00 93 1012.6
20260831103031 73 183 6.0 14.0 0.00 0.00 0.00 93 1012.6
20260831102531 73 200 5.0 13.0 0.00 0.00 0.00 93 1012.6
20260831102030 73 186 7.0 13.0 0.00 0.00 0.00 93 1012.6
20260831101530 73 165 6.0 11.0 0.00 0.00 0.00 93 1012.6
20260831101030 73 184 5.0 14.0 0.00 0.00 0.00 93 1012.6
20260831100529 73 150 7.0 14.0 0.00 0.00 0.00 93 1012.7
20260831100035 73 178 5.0 12.0 0.00 0.00 0.00 93 1012.7
20260831095529 73 187 8.0 12.0 0.00 0.00 0.00 93 1012.7
20260831095029 73 186 5.0 12.0 0.00 0.00 0.00 93 1012.7
20260831094529 73 165 4.0 10.0 0.00 0.00 0.00 93 1012.6
20260831094030 73 156 6.0 12.0 0.00 0.00 0.00 93 1012.5
20260831093528 73 180 8.0 13.0 0.00 0.00 0.00 93 1012.5
20260831093031 73 169 8.0 13.0 0.00 0.00 0.00 92 1012.5
20260831092532 73 157 5.0 15.0 0.00 0.00 0.00 92 1012.5
20260831092026 73 186 7.0 15.0 0.00 0.00 0.00 92 1012.6
20260831091532 73 159 7.0 16.0 0.00 0.00 0.00 92 1012.5
20260831091026 73 184 7.0 15.0 0.00 0.00 0.00 92 1012.4
20260831090529 73 188 9.0 15.0 0.00 0.00 0.00 92 1012.5
20260831090026 73 175 6.0 15.0 0.00 0.00 0.00 91 1012.5
20260831085526 73 132 9.0 14.0 0.00 0.00 0.00 91 1012.6
20260831085026 73 204 7.0 14.0 0.00 0.00 0.00 91 1012.6
20260831084528 74 155 7.0 14.0 0.00 0.00 0.00 91 1012.6
20260831084023 74 166 8.0 12.0 0.00 0.00 0.00 90 1012.6
20260831083523 74 145 8.0 15.0 0.00 0.00 0.00 90 1012.7
20260831083022 74 169 8.0 14.0 0.00 0.00 0.00 90 1012.7
20260831082521 74 168 6.0 14.0 0.00 0.00 0.00 89 1012.8
20260831082020 74 176 5.0 10.0 0.00 0.00 0.00 88 1012.9
20260831081522 74 175 5.0 11.0 0.00 0.00 0.00 88 1012.9
20260831081020 74 189 6.0 11.0 0.00 0.00 0.00 87 1013.0
20260831080518 74 143 4.0 12.0 0.00 0.00 0.00 87 1013.0
20260831080019 74 175 5.0 13.0 0.00 0.00 0.00 87 1013.1
20260831075520 74 151 8.0 13.0 0.00 0.00 0.00 86 1013.2
20260831075017 74 163 5.0 11.0 0.00 0.00 0.00 86 1013.1
20260831074521 74 173 5.0 12.0 0.00 0.00 0.00 86 1013.1
20260831074016 75 159 6.0 13.0 0.00 0.00 0.00 85 1013.2
20260831073518 75 161 8.0 13.0 0.00 0.00 0.00 85 1013.2
20260831073014 75 183 8.0 13.0 0.00 0.00 0.00 84 1013.2
20260831072514 75 148 5.0 10.0 0.00 0.00 0.00 84 1013.2
20260831072012 75 163 5.0 10.0 0.00 0.00 0.00 83 1013.2
20260831071511 75 136 6.0 10.0 0.00 0.00 0.00 83 1013.1
20260831071011 75 153 5.0 13.0 0.00 0.00 0.00 82 1013.0
20260831070511 75 200 7.0 13.0 0.00 0.00 0.00 82 1013.0
20260831070010 75 151 6.0 12.0 0.00 0.00 0.00 82 1013.1
20260831065512 76 140 5.0 12.0 0.00 0.00 0.00 81 1013.0
20260831065008 76 162 6.0 10.0 0.00 0.00 0.00 80 1013.0
20260831064507 76 148 5.0 10.0 0.00 0.00 0.00 80 1013.1
20260831064007 76 146 6.0 10.0 0.00 0.00 0.00 80 1013.1
20260831063505 76 138 5.0 12.0 0.00 0.00 0.00 79 1013.0
20260831063005 76 193 4.0 12.0 0.00 0.00 0.00 80 1013.0
20260831062505 76 182 5.0 11.0 0.00 0.00 0.00 79 1012.9
20260831062002 77 134 5.0 11.0 0.00 0.00 0.00 79 1012.9
20260831061501 77 128 5.0 10.0 0.00 0.00 0.00 78 1012.9
20260831061101 77 161 5.0 8.0 0.00 0.00 0.00 78 1012.9
20260831060600 77 182 5.0 9.0 0.00 0.00 0.00 77 1012.8
20260831060109 77 149 4.0 11.0 0.00 0.00 0.00 77 1012.8
20260831055557 77 177 4.0 11.0 0.00 0.00 0.00 77 1012.8
20260831055059 78 176 5.0 10.0 0.00 0.00 0.00 77 1012.8
20260831054556 78 177 6.0 10.0 0.00 0.00 0.00 77 1012.8
20260831054056 78 178 6.0 10.0 0.00 0.00 0.00 76 1012.8
20260831053555 78 169 6.0 17.0 0.00 0.00 0.00 76 1012.7
20260831053155 78 161 6.0 17.0 0.00 0.00 0.00 76 1012.7
20260831052552 79 167 7.0 18.0 0.00 0.00 0.00 76 1012.7
20260831052053 79 152 8.0 18.0 0.00 0.00 0.00 75 1012.7
20260831051557 79 160 9.0 16.0 0.00 0.00 0.00 75 1012.5
20260831051050 79 167 9.0 16.0 0.00 0.00 0.00 75 1012.5
20260831050549 79 166 6.0 16.0 0.00 0.00 0.00 74 1012.4
20260831050047 79 167 7.0 15.0 0.00 0.00 0.00 73 1012.4
20260831045547 80 175 7.0 16.0 0.00 0.00 0.00 73 1012.4
20260831045047 80 141 10.0 16.0 0.00 0.00 0.00 73 1012.4
20260831044547 80 179 9.0 20.0 0.00 0.00 0.00 72 1012.3